GW3493 Weather Reports


Display with metric or nautical units.
time (UTC)temp
F
wind
direction
speed
MPH
gust
MPH
rain 1hr
in
rain 24hr
in
rain mn
in
humidity
%
barometer
mb
20260505130137 66 249 3.0 9.0 0.00 0.00 0.00 56 1006.7
20260505124136 65 263 3.0 9.0 0.00 0.00 0.00 58 1006.6
20260505123241 65 231 3.0 9.0 0.00 0.00 0.00 59 1006.7
20260505122159 64 255 2.0 6.0 0.00 0.00 0.00 60 1006.8
20260505121220 64 240 1.0 4.0 0.00 0.00 0.00 61 1006.8
20260505120158 64 261 3.0 4.0 0.00 0.00 0.00 61 1006.8
20260505114805 64 239 3.0 7.0 0.00 0.00 0.00 61 1006.7
20260505113723 64 242 2.0 6.0 0.00 0.00 0.00 61 1006.7
20260505112725 63 267 2.0 3.0 0.00 0.00 0.00 63 1006.7
20260505111642 63 289 2.0 4.0 0.00 0.00 0.00 62 1006.5
20260505110723 63 287 2.0 7.0 0.00 0.00 0.00 62 1006.4
20260505101704 62 243 2.0 8.0 0.00 0.00 0.00 65 1005.7
20260505100705 62 250 2.0 8.0 0.00 0.00 0.00 65 1005.6
20260505095623 62 265 2.0 6.0 0.00 0.00 0.00 65 1005.6
20260505094645 62 255 3.0 8.0 0.00 0.00 0.00 66 1005.4
20260505093706 61 248 1.0 7.0 0.00 0.00 0.00 67 1005.5
20260505092748 62 250 3.0 7.0 0.00 0.00 0.00 66 1005.3
20260505091645 61 266 2.0 7.0 0.00 0.00 0.00 67 1005.3
20260505090705 61 267 4.0 8.0 0.00 0.00 0.00 67 1005.3
20260505085643 61 256 2.0 7.0 0.00 0.00 0.00 69 1005.4
20260505084645 60 275 1.0 6.0 0.00 0.00 0.00 69 1005.3
20260505083706 60 275 1.0 8.0 0.00 0.00 0.00 70 1005.2
20260505082747 60 278 1.0 6.0 0.00 0.00 0.00 72 1005.2
20260505081645 60 254 1.0 4.0 0.00 0.00 0.00 73 1005.1
20260505080726 59 272 1.0 4.0 0.00 0.00 0.00 75 1005.1
20260505075625 59 266 2.0 4.0 0.00 0.00 0.00 75 1004.9
20260505074646 59 273 2.0 3.0 0.00 0.00 0.00 76 1004.9
20260505073707 59 279 1.0 3.0 0.00 0.00 0.00 76 1005.0
20260505072746 59 263 2.0 4.0 0.00 0.00 0.00 75 1005.0
20260505071644 59 250 1.0 3.0 0.00 0.00 0.00 77 1005.1
20260505070705 59 265 1.0 3.0 0.00 0.00 0.00 78 1005.3
20260505065622 61 244 2.0 6.0 0.00 0.00 0.00 74 1005.4
20260505064644 64 266 2.0 4.0 0.00 0.00 0.00 61 1005.6
20260505063706 64 251 3.0 9.0 0.00 0.00 0.00 58 1005.8
20260505062727 64 268 2.0 7.0 0.00 0.00 0.00 57 1005.0
20260505061645 64 258 2.0 6.0 0.00 0.00 0.00 57 1004.8
20260505060707 64 253 2.0 4.0 0.00 0.00 0.00 57 1005.0
20260505055626 64 266 2.0 7.0 0.00 0.00 0.00 57 1005.0
20260505054647 64 263 2.0 6.0 0.00 0.00 0.00 58 1005.1
20260505053729 63 266 1.0 4.0 0.00 0.00 0.00 59 1005.1
20260505052730 63 279 1.0 4.0 0.00 0.00 0.00 59 1005.2
20260505051648 63 271 1.0 4.0 0.00 0.00 0.00 59 1005.4
20260505050710 63 265 1.0 3.0 0.00 0.00 0.00 59 1005.5
20260505041650 61 260 1.0 3.0 0.00 0.00 0.00 62 1005.4
20260505040712 61 302 0.0 1.0 0.00 0.00 0.00 63 1005.4
20260505035630 61 287 0.0 2.0 0.00 0.00 0.00 62 1005.4
20260505034652 61 302 0.0 1.0 0.00 0.00 0.00 62 1005.4
20260505033713 62 302 0.0 1.0 0.00 0.00 0.00 61 1005.4
20260505032735 62 301 1.0 2.0 0.00 0.00 0.00 61 1005.5
20260505031652 62 305 0.0 1.0 0.00 0.00 0.00 60 1005.6
20260505030734 63 308 0.0 2.0 0.00 0.00 0.00 60 1005.7
20260505025632 63 274 1.0 3.0 0.00 0.00 0.00 59 1005.8
20260505024653 63 279 1.0 7.0 0.00 0.00 0.00 59 1005.7
20260505023734 64 291 1.0 2.0 0.00 0.00 0.00 58 1005.7
20260505022735 64 274 1.0 4.0 0.00 0.00 0.00 57 1005.8
20260505021733 64 283 1.0 3.0 0.00 0.00 0.00 57 1005.8
20260505020714 65 290 2.0 4.0 0.00 0.00 0.00 56 1005.8
20260505015633 65 273 1.0 3.0 0.00 0.00 0.00 56 1005.8
20260505014653 65 280 1.0 7.0 0.00 0.00 0.00 56 1005.8
20260505013715 65 270 2.0 6.0 0.00 0.00 0.00 56 1005.7
20260505012736 65 279 1.0 3.0 0.00 0.00 0.00 56 1005.6
20260505011654 65 273 2.0 4.0 0.00 0.00 0.00 55 1005.5
20260505010715 65 260 2.0 7.0 0.00 0.00 0.00 55 1005.5
20260505005633 66 266 1.0 4.0 0.00 0.00 0.00 54 1005.4
20260505004654 66 254 2.0 3.0 0.00 0.00 0.00 54 1005.1
20260505003716 66 266 2.0 4.0 0.00 0.00 0.00 54 1005.0
20260505002736 66 279 2.0 4.0 0.00 0.00 0.00 53 1004.9
20260505001654 67 271 2.0 4.0 0.00 0.00 0.00 52 1004.8
20260505000716 67 270 2.0 7.0 0.00 0.00 0.00 51 1004.8
20260504235653 68 259 2.0 6.0 0.00 0.00 0.00 51 1004.8
20260504234655 68 263 3.0 6.0 0.00 0.00 0.00 50 1004.7
20260504233716 69 272 2.0 4.0 0.00 0.00 0.00 50 1004.8
20260504232736 69 273 3.0 6.0 0.00 0.00 0.00 50 1005.0
20260504231655 69 280 2.0 3.0 0.00 0.00 0.00 51 1005.1
20260504230716 69 237 3.0 7.0 0.00 0.00 0.00 52 1005.0
20260504225742 69 260 2.0 8.0 0.00 0.00 0.00 53 1005.0
20260504224659 68 256 2.0 6.0 0.00 0.00 0.00 55 1005.1
20260504223701 69 286 2.0 4.0 0.00 0.00 0.00 58 1005.3
20260504222737 70 255 3.0 4.0 0.00 0.00 0.00 47 1005.1
20260504221739 71 244 2.0 4.0 0.00 0.00 0.00 45 1005.1
20260504220657 71 253 3.0 7.0 0.00 0.00 0.00 44 1005.2
20260504215718 71 257 4.0 10.0 0.00 0.00 0.00 44 1005.0
20260504214636 71 277 1.0 2.0 0.00 0.00 0.00 44 1005.1
20260504213657 71 259 2.0 6.0 0.00 0.00 0.00 45 1005.0
20260504212718 72 261 2.0 6.0 0.00 0.00 0.00 44 1005.0
20260504211739 72 251 3.0 7.0 0.00 0.00 0.00 44 1005.1
20260504210737 71 245 2.0 6.0 0.00 0.00 0.00 44 1005.0
20260504205719 72 278 3.0 7.0 0.00 0.00 0.00 43 1004.8
20260504204636 74 247 4.0 10.0 0.00 0.00 0.00 40 1004.9
20260504203658 73 264 4.0 11.0 0.00 0.00 0.00 43 1004.8
20260504202719 73 220 4.0 11.0 0.00 0.00 0.00 43 1005.1
20260504201800 72 275 4.0 8.0 0.00 0.00 0.00 44 1005.3
20260504200658 73 264 5.0 9.0 0.00 0.00 0.00 42 1005.5
20260504195720 73 238 3.0 6.0 0.00 0.00 0.00 42 1005.4
20260504194629 74 226 6.0 11.0 0.00 0.00 0.00 40 1005.5
20260504193710 74 238 3.0 6.0 0.00 0.00 0.00 42 1005.7
20260504192712 72 239 3.0 13.0 0.00 0.00 0.00 43 1005.5
20260504191733 72 263 3.0 10.0 0.00 0.00 0.00 43 1005.7
20260504190651 72 238 2.0 9.0 0.00 0.00 0.00 43 1005.7
20260504185712 73 259 4.0 9.0 0.00 0.00 0.00 42 1005.9
20260504184650 73 265 3.0 6.0 0.00 0.00 0.00 43 1005.9
20260504183650 72 242 4.0 10.0 0.00 0.00 0.00 43 1006.1
20260504182712 72 265 3.0 4.0 0.00 0.00 0.00 42 1006.1
20260504181733 71 259 2.0 7.0 0.00 0.00 0.00 43 1006.3
20260504180651 71 293 2.0 9.0 0.00 0.00 0.00 44 1006.4
20260504175712 70 217 5.0 10.0 0.00 0.00 0.00 44 1006.7
20260504174650 70 269 6.0 11.0 0.00 0.00 0.00 43 1006.7
20260504173648 70 237 5.0 11.0 0.00 0.00 0.00 43 1006.9
20260504172709 70 288 4.0 7.0 0.00 0.00 0.00 42 1006.8
20260504171730 69 252 2.0 7.0 0.00 0.00 0.00 44 1006.9
20260504170708 69 274 2.0 9.0 0.00 0.00 0.00 43 1007.1
20260504150650 63 273 3.0 8.0 0.00 0.00 0.00 46 1008.7
20260504140648 60 249 4.0 7.0 0.00 0.00 0.00 48 1008.5